FW2847 Weather Reports


Display with metric or nautical units.
time (UTC)temp
F
wind
direction
speed
MPH
gust
MPH
rain 1hr
in
rain 24hr
in
rain mn
in
humidity
%
barometer
mb
20260904173812 85 84 3.0 10.0 0.00 0.00 0.00 22 1020.6
20260904173310 85 129 3.0 9.0 0.00 0.00 0.00 23 1020.6
20260904172809 85 126 4.0 9.0 0.00 0.00 0.00 22 1020.6
20260904172308 84 180 5.0 9.0 0.00 0.00 0.00 24 1020.6
20260904171809 84 89 5.0 11.0 0.00 0.00 0.00 24 1020.6
20260904171308 84 105 5.0 11.0 0.00 0.00 0.00 24 1020.6
20260904170808 84 120 6.0 11.0 0.00 0.00 0.00 24 1020.6
20260904170308 85 99 5.0 13.0 0.00 0.00 0.00 23 1020.6
20260904165809 85 88 3.0 13.0 0.00 0.00 0.00 24 1020.6
20260904165309 84 198 2.0 7.0 0.00 0.00 0.00 24 1020.6
20260904164807 84 129 2.0 6.0 0.00 0.00 0.00 24 1020.6
20260904164308 84 116 2.0 6.0 0.00 0.00 0.00 25 1020.6
20260904163809 83 95 3.0 6.0 0.00 0.00 0.00 26 1020.6
20260904163307 83 103 3.0 8.0 0.00 0.00 0.00 28 1020.6
20260904162807 83 106 2.0 8.0 0.00 0.00 0.00 29 1020.6
20260904162310 83 98 1.0 4.0 0.00 0.00 0.00 29 1020.6
20260904161810 82 102 2.0 7.0 0.00 0.00 0.00 29 1020.6
20260904161307 82 75 3.0 7.0 0.00 0.00 0.00 28 1020.6
20260904161039 81 98 3.0 9.0 0.00 0.00 0.00 29 1020.6
20260904160928 81 107 4.0 9.0 0.00 0.00 0.00 28 1020.6
20260904155809 81 72 4.0 7.0 0.00 0.00 0.00 27 1020.6
20260904155308 81 84 4.0 7.0 0.00 0.00 0.00 27 1020.6
20260904154808 81 84 2.0 6.0 0.00 0.00 0.00 27 1020.6
20260904154309 81 117 2.0 5.0 0.00 0.00 0.00 27 1020.6
20260904153809 81 189 2.0 5.0 0.00 0.00 0.00 28 1020.6
20260904153308 81 77 1.0 5.0 0.00 0.00 0.00 28 1020.6
20260904152807 81 96 1.0 5.0 0.00 0.00 0.00 28 1020.6
20260904152308 81 79 1.0 3.0 0.00 0.00 0.00 28 1020.6
20260904151809 80 108 1.0 2.0 0.00 0.00 0.00 28 1020.6
20260904151309 79 115 1.0 4.0 0.00 0.00 0.00 29 1020.6
20260904150809 78 160 1.0 5.0 0.00 0.00 0.00 29 1020.6
20260904150309 78 79 1.0 5.0 0.00 0.00 0.00 30 1020.6
20260904145808 78 120 1.0 2.0 0.00 0.00 0.00 30 1020.6
20260904145307 78 149 0.0 2.0 0.00 0.00 0.00 29 1020.6
20260904144808 77 144 0.0 2.0 0.00 0.00 0.00 30 1020.6
20260904144308 77 235 0.0 1.0 0.00 0.00 0.00 31 1020.6
20260904143805 76 260 0.0 2.0 0.00 0.00 0.00 32 1020.6
20260904143306 75 150 1.0 5.0 0.00 0.00 0.00 32 1020.6
20260904142806 75 108 1.0 5.0 0.00 0.00 0.00 32 1020.6
20260904142306 75 94 2.0 6.0 0.00 0.00 0.00 31 1020.6
20260904142035 75 108 2.0 6.0 0.00 0.00 0.00 32 1020.6
20260904141303 77 111 1.0 5.0 0.00 0.00 0.00 30 1020.6
20260904140804 77 253 0.0 2.0 0.00 0.00 0.00 28 1020.6
20260904140302 76 270 0.0 2.0 0.00 0.00 0.00 28 1020.6
20260904135759 75 259 0.0 2.0 0.00 0.00 0.00 28 1020.6
20260904135259 74 252 1.0 5.0 0.00 0.00 0.00 29 1020.6
20260904134802 73 242 1.0 5.0 0.00 0.00 0.00 29 1020.6
20260904134301 72 148 0.0 4.0 0.00 0.00 0.00 32 1020.6
20260904133800 72 238 0.0 1.0 0.00 0.00 0.00 33 1020.6
20260904133259 71 244 0.0 1.0 0.00 0.00 0.00 33 1020.6
20260904132800 72 244 0.0 1.0 0.00 0.00 0.00 34 1020.6
20260904132300 71 244 0.0 0.0 0.00 0.00 0.00 34 1020.6
20260904131800 70 244 0.0 0.0 0.00 0.00 0.00 35 1020.6
20260904131530 70 244 0.0 1.0 0.00 0.00 0.00 33 1020.6
20260904130757 69 247 0.0 1.0 0.00 0.00 0.00 34 1020.6
20260904130257 67 266 0.0 0.0 0.00 0.00 0.00 35 1020.6
20260904125758 67 267 0.0 0.0 0.00 0.00 0.00 36 1020.6
20260904125258 65 266 0.0 0.0 0.00 0.00 0.00 37 1020.6
20260904125030 65 267 1.0 5.0 0.00 0.00 0.00 39 1020.6
20260904124257 64 267 1.0 5.0 0.00 0.00 0.00 39 1020.6
20260904123758 63 276 0.0 3.0 0.00 0.00 0.00 41 1020.6
20260904123526 62 287 0.0 3.0 0.00 0.00 0.00 41 1020.6
20260904122756 62 254 0.0 0.0 0.00 0.00 0.00 42 1020.6
20260904122529 62 254 0.0 0.0 0.00 0.00 0.00 42 1020.6
20260904121757 63 264 0.0 2.0 0.00 0.00 0.00 40 1020.6
20260904121255 63 264 0.0 3.0 0.00 0.00 0.00 40 1020.6
20260904120756 63 245 0.0 3.0 0.00 0.00 0.00 40 1020.6
20260904120527 63 203 0.0 0.0 0.00 0.00 0.00 40 1020.6
20260904115756 64 217 0.0 0.0 0.00 0.00 0.00 39 1020.6
20260904115254 64 217 0.0 0.0 0.00 0.00 0.00 39 1020.6
20260904114755 65 148 0.0 0.0 0.00 0.00 0.00 38 1020.6
20260904114253 65 141 0.0 0.0 0.00 0.00 0.00 38 1020.6
20260904113753 66 220 0.0 0.0 0.00 0.00 0.00 36 1020.6
20260904113254 66 271 0.0 1.0 0.00 0.00 0.00 35 1020.6
20260904112754 66 271 1.0 3.0 0.00 0.00 0.00 36 1020.6
20260904112253 66 271 1.0 3.0 0.00 0.00 0.00 36 1020.6
20260904111753 64 290 0.0 1.0 0.00 0.00 0.00 38 1020.6
20260904111524 64 290 1.0 2.0 0.00 0.00 0.00 39 1020.6
20260904110754 64 290 1.0 3.0 0.00 0.00 0.00 40 1020.6
20260904110252 65 292 0.0 3.0 0.00 0.00 0.00 39 1020.6
20260904105751 65 255 0.0 0.0 0.00 0.00 0.00 39 1020.6
20260904105252 65 255 0.0 0.0 0.00 0.00 0.00 38 1020.6
20260904104751 65 255 0.0 0.0 0.00 0.00 0.00 38 1020.6
20260904104253 65 255 0.0 0.0 0.00 0.00 0.00 38 1020.6
20260904103751 66 255 0.0 0.0 0.00 0.00 0.00 38 1020.6
20260904103524 66 255 0.0 0.0 0.00 0.00 0.00 38 1020.6
20260904103023 66 255 0.0 0.0 0.00 0.00 0.00 38 1020.6
20260904102524 66 255 0.0 0.0 0.00 0.00 0.00 38 1020.6
20260904102021 66 255 0.0 0.0 0.00 0.00 0.00 38 1020.6
20260904101249 65 255 0.0 0.0 0.00 0.00 0.00 39 1020.6
20260904100753 66 255 0.0 0.0 0.00 0.00 0.00 39 1020.6
20260904100249 66 255 0.0 0.0 0.00 0.00 0.00 38 1020.6
20260904095750 66 255 0.0 0.0 0.00 0.00 0.00 39 1020.6
20260904095250 66 255 0.0 2.0 0.00 0.00 0.00 37 1020.6
20260904094751 67 255 0.0 2.0 0.00 0.00 0.00 36 1020.6
20260904094249 68 283 0.0 1.0 0.00 0.00 0.00 35 1020.6
20260904093749 68 220 0.0 0.0 0.00 0.00 0.00 35 1020.6
20260904093250 69 302 0.0 0.0 0.00 0.00 0.00 33 1020.6
20260904093022 70 302 0.0 0.0 0.00 0.00 0.00 31 1020.6
20260904092252 72 292 1.0 3.0 0.00 0.00 0.00 30 1020.6
20260904092247 71 291 0.0 2.0 0.00 0.00 0.00 30 1020.6
20260904091246 72 279 1.0 3.0 0.00 0.00 0.00 31 1020.6
20260904091020 72 280 1.0 3.0 0.00 0.00 0.00 31 1020.6
20260904090246 71 283 0.0 2.0 0.00 0.00 0.00 33 1020.6
20260904085747 71 255 1.0 2.0 0.00 0.00 0.00 34 1020.6
20260904085249 72 272 2.0 4.0 0.00 0.00 0.00 34 1020.6
20260904084748 72 290 2.0 4.0 0.00 0.00 0.00 34 1020.6
20260904084519 71 269 2.0 4.0 0.00 0.00 0.00 35 1020.6
20260904083748 71 281 2.0 5.0 0.00 0.00 0.00 35 1020.6
20260904083245 69 287 3.0 6.0 0.00 0.00 0.00 37 1020.6
20260904083018 68 285 3.0 6.0 0.00 0.00 0.00 38 1020.6
20260904082246 68 295 2.0 5.0 0.00 0.00 0.00 38 1020.6
20260904081748 69 291 1.0 5.0 0.00 0.00 0.00 36 1020.6
20260904081247 70 278 1.0 5.0 0.00 0.00 0.00 36 1020.6
20260904080745 70 278 2.0 5.0 0.00 0.00 0.00 36 1020.6
20260904080246 71 283 3.0 6.0 0.00 0.00 0.00 36 1020.6
20260904075746 70 271 3.0 6.0 0.00 0.00 0.00 36 1020.6
20260904075516 70 275 3.0 5.0 0.00 0.00 0.00 36 1020.6
20260904074752 72 282 2.0 4.0 0.00 0.00 0.00 35 1020.6
20260904074747 70 295 2.0 5.0 0.00 0.00 0.00 36 1020.6
20260904073744 72 289 3.0 7.0 0.00 0.00 0.00 35 1020.6
20260904073245 71 272 3.0 7.0 0.00 0.00 0.00 36 1020.6
20260904072744 70 286 3.0 5.0 0.00 0.00 0.00 36 1020.6
20260904072241 69 296 2.0 5.0 0.00 0.00 0.00 37 1020.6
20260904071741 71 295 1.0 4.0 0.00 0.00 0.00 35 1020.6
20260904071241 72 281 1.0 3.0 0.00 0.00 0.00 34 1020.6
20260904071014 72 270 1.0 3.0 0.00 0.00 0.00 34 1020.6
20260904070242 72 274 2.0 3.0 0.00 0.00 0.00 34 1020.6
20260904065741 72 278 2.0 3.0 0.00 0.00 0.00 35 1020.6
20260904065241 71 276 1.0 3.0 0.00 0.00 0.00 35 1020.6
20260904064742 71 297 0.0 3.0 0.00 0.00 0.00 35 1020.6
20260904064241 70 283 0.0 2.0 0.00 0.00 0.00 37 1020.6
20260904063741 69 283 0.0 2.0 0.00 0.00 0.00 38 1020.6
20260904063246 69 272 0.0 0.0 0.00 0.00 0.00 39 1020.6
20260904063242 69 234 0.0 0.0 0.00 0.00 0.00 38 1020.6
20260904062240 69 272 0.0 0.0 0.00 0.00 0.00 39 1020.6
20260904061738 69 188 0.0 0.0 0.00 0.00 0.00 38 1020.6
20260904061238 69 150 0.0 0.0 0.00 0.00 0.00 38 1020.6
20260904060740 69 223 1.0 4.0 0.00 0.00 0.00 37 1020.6
20260904060239 70 96 1.0 5.0 0.00 0.00 0.00 37 1020.6
20260904055740 71 143 1.0 6.0 0.00 0.00 0.00 37 1020.6
20260904055509 72 117 1.0 6.0 0.00 0.00 0.00 36 1020.6
20260904054739 73 266 0.0 0.0 0.00 0.00 0.00 34 1020.6
20260904054245 73 267 0.0 0.0 0.00 0.00 0.00 33 1020.6
20260904054239 73 267 0.0 0.0 0.00 0.00 0.00 33 1020.6
20260904053239 73 267 0.0 0.0 0.00 0.00 0.00 34 1020.6
20260904052739 72 193 0.0 0.0 0.00 0.00 0.00 34 1020.6
20260904052239 73 287 0.0 0.0 0.00 0.00 0.00 34 1020.6
20260904051739 73 287 0.0 0.0 0.00 0.00 0.00 33 1020.6
20260904051238 74 287 0.0 1.0 0.00 0.00 0.00 33 1020.6
20260904050739 74 287 0.0 5.0 0.00 0.00 0.00 33 1020.6
20260904050511 74 271 1.0 6.0 0.00 0.00 0.00 32 1020.6
20260904050012 74 302 3.0 6.0 0.00 0.00 0.00 33 1020.6
20260904045239 74 288 3.0 6.0 0.00 0.00 0.00 33 1020.6
20260904045008 73 288 2.0 5.0 0.00 0.00 0.00 34 1020.6
20260904044507 73 292 3.0 7.0 0.00 0.00 0.00 35 1020.6
20260904043736 73 274 3.0 7.0 0.00 0.00 0.00 34 1020.6
20260904043237 73 305 3.0 6.0 0.00 0.00 0.00 35 1020.6
20260904043004 74 286 4.0 8.0 0.00 0.00 0.00 34 1020.6
20260904042232 74 293 5.0 9.0 0.00 0.00 0.00 33 1020.6
20260904041731 74 290 6.0 9.0 0.00 0.00 0.00 33 1020.6
20260904041502 74 309 5.0 9.0 0.00 0.00 0.00 34 1020.6
20260904040730 73 291 5.0 8.0 0.00 0.00 0.00 35 1020.6
20260904040229 73 326 5.0 9.0 0.00 0.00 0.00 35 1020.6
20260904035729 74 287 6.0 9.0 0.00 0.00 0.00 35 1020.6
20260904035226 74 304 6.0 9.0 0.00 0.00 0.00 34 1020.6
20260904034726 74 302 7.0 10.0 0.00 0.00 0.00 34 1020.6
20260904034228 75 305 7.0 11.0 0.00 0.00 0.00 34 1020.6
20260904033726 75 299 7.0 11.0 0.00 0.00 0.00 34 1020.6
20260904033227 74 312 6.0 9.0 0.00 0.00 0.00 35 1020.6
20260904032724 74 297 6.0 9.0 0.00 0.00 0.00 35 1020.6
20260904032458 73 297 6.0 9.0 0.00 0.00 0.00 35 1020.6
20260904031726 74 297 6.0 10.0 0.00 0.00 0.00 35 1020.6
20260904031224 73 314 5.0 10.0 0.00 0.00 0.00 36 1020.6
20260904030724 72 298 5.0 9.0 0.00 0.00 0.00 36 1020.6
20260904030220 73 297 6.0 9.0 0.00 0.00 0.00 36 1020.6
20260904025721 74 312 6.0 10.0 0.00 0.00 0.00 35 1020.6
20260904025220 75 328 6.0 10.0 0.00 0.00 0.00 35 1020.6
20260904024723 75 6 7.0 10.0 0.00 0.00 0.00 35 1020.6
20260904024220 75 300 7.0 10.0 0.00 0.00 0.00 35 1020.6
20260904023720 75 326 6.0 11.0 0.00 0.00 0.00 35 1020.6
20260904023221 75 296 6.0 11.0 0.00 0.01 0.00 35 1020.6
20260904022723 75 284 7.0 10.0 0.00 0.01 0.00 35 1020.6
20260904022219 75 325 7.0 10.0 0.00 0.01 0.00 34 1020.6
20260904021721 75 307 7.0 10.0 0.00 0.01 0.00 33 1020.6
20260904021220 76 316 7.0 11.0 0.00 0.01 0.00 32 1020.6
20260904020721 76 307 7.0 11.0 0.00 0.01 0.00 32 1020.6
20260904020220 76 316 6.0 11.0 0.00 0.01 0.00 31 1020.6
20260904015720 76 312 5.0 9.0 0.00 0.01 0.00 31 1020.6
20260904015220 76 314 5.0 9.0 0.00 0.01 0.00 31 1020.6
20260904014723 76 354 4.0 9.0 0.00 0.01 0.00 30 1020.6
20260904014221 76 300 4.0 8.0 0.00 0.01 0.00 30 1020.6
20260904013721 76 328 4.0 8.0 0.00 0.01 0.00 31 1020.6
20260904013220 76 328 4.0 7.0 0.00 0.01 0.00 30 1020.6
20260904012954 76 321 3.0 7.0 0.00 0.01 0.00 30 1020.6
20260904012221 78 290 3.0 7.0 0.00 0.01 0.00 29 1020.6
20260904011720 79 318 2.0 6.0 0.00 0.01 0.00 27 1020.6
20260904011223 79 326 3.0 7.0 0.00 0.01 0.00 27 1020.6
20260904010951 79 1 1.0 7.0 0.00 0.01 0.00 27 1020.6
20260904010220 79 4 1.0 8.0 0.00 0.01 0.00 26 1020.6
20260904005722 80 37 2.0 8.0 0.00 0.01 0.00 26 1020.6
20260904005221 80 351 2.0 7.0 0.00 0.01 0.00 26 1020.6
20260904004719 80 17 2.0 7.0 0.00 0.01 0.00 26 1020.6
20260904004219 81 27 2.0 6.0 0.00 0.01 0.00 25 1020.6
20260904003720 81 25 2.0 6.0 0.00 0.01 0.00 25 1020.6
20260904003218 81 3 3.0 9.0 0.00 0.01 0.00 25 1020.6
20260904002718 82 0 4.0 11.0 0.00 0.01 0.00 25 1020.6
20260904002218 82 8 5.0 11.0 0.00 0.01 0.00 24 1020.6
20260904001721 83 68 5.0 10.0 0.00 0.01 0.00 24 1020.6
20260904001219 84 40 5.0 10.0 0.00 0.01 0.00 23 1020.6
20260904000949 85 282 7.0 14.0 0.00 0.01 0.00 23 1020.6
20260904000221 85 56 9.0 15.0 0.00 0.01 0.00 23 1020.6
20260903235947 85 83 8.0 15.0 0.00 0.01 0.00 22 1020.6
20260903235218 86 90 5.0 11.0 0.00 0.01 0.00 22 1020.6
20260903234716 86 61 4.0 10.0 0.00 0.01 0.00 22 1020.6
20260903234449 86 72 6.0 11.0 0.00 0.01 0.00 21 1020.6
20260903233717 87 22 5.0 11.0 0.00 0.01 0.00 21 1020.6
20260903233216 86 74 4.0 8.0 0.00 0.01 0.00 22 1020.6
20260903232717 87 77 3.0 8.0 0.00 0.01 0.00 21 1020.6
20260903232216 87 33 2.0 6.0 0.00 0.01 0.00 21 1020.6
20260903231716 87 88 3.0 8.0 0.00 0.01 0.00 21 1020.6
20260903231216 87 96 1.0 8.0 0.00 0.01 0.00 22 1020.6
20260903230947 87 72 2.0 7.0 0.00 0.01 0.00 22 1020.6
20260903230215 87 1 4.0 10.0 0.00 0.01 0.00 21 1020.6
20260903225714 87 73 4.0 13.0 0.00 0.01 0.00 22 1020.6
20260903225214 87 68 5.0 13.0 0.00 0.01 0.00 21 1020.6
20260903224947 87 77 5.0 9.0 0.00 0.01 0.00 21 1020.6
20260903224214 87 66 4.0 9.0 0.00 0.01 0.00 22 1020.6
20260903223714 87 89 4.0 8.0 0.00 0.01 0.00 22 1020.6
20260903223216 87 342 4.0 10.0 0.00 0.01 0.00 21 1020.6
20260903222712 86 43 5.0 10.0 0.00 0.01 0.00 22 1020.6
20260903222214 86 77 6.0 15.0 0.00 0.01 0.00 22 1020.6
20260903221711 87 29 6.0 15.0 0.00 0.01 0.00 21 1020.6
20260903221213 88 57 5.0 15.0 0.00 0.01 0.00 22 1020.6
20260903220708 87 108 5.0 15.0 0.00 0.01 0.00 22 1020.6
20260903220439 88 86 5.0 11.0 0.00 0.01 0.00 21 1020.6
20260903215710 87 78 5.0 14.0 0.00 0.01 0.00 23 1020.6
20260903215440 88 60 6.0 14.0 0.00 0.01 0.00 22 1020.6
20260903214709 87 63 6.0 14.0 0.00 0.01 0.00 22 1020.6
20260903214215 87 73 4.0 11.0 0.00 0.01 0.00 23 1020.6
20260903214210 87 54 5.0 11.0 0.00 0.01 0.00 22 1020.6
20260903213206 87 47 5.0 11.0 0.00 0.01 0.00 22 1020.6
20260903212709 87 68 6.0 11.0 0.00 0.01 0.00 22 1020.6
20260903212206 87 93 5.0 11.0 0.00 0.01 0.00 23 1020.6
20260903211705 87 122 4.0 11.0 0.00 0.01 0.00 23 1020.6
20260903211206 87 75 5.0 10.0 0.00 0.01 0.00 23 1020.6
20260903210709 86 53 7.0 12.0 0.00 0.01 0.00 23 1020.6
20260903210206 87 69 7.0 13.0 0.00 0.01 0.00 23 1020.6
20260903205711 86 84 6.0 12.0 0.00 0.01 0.00 22 1020.6
20260903205706 86 83 6.0 13.0 0.00 0.01 0.00 23 1020.6
20260903204941 86 87 4.0 9.0 0.00 0.01 0.00 22 1020.6
20260903204439 86 57 3.0 10.0 0.00 0.01 0.00 24 1020.6
20260903203708 85 102 3.0 10.0 0.00 0.01 0.00 24 1020.6
20260903203205 86 77 3.0 10.0 0.00 0.01 0.00 23 1020.6
20260903202704 87 20 4.0 10.0 0.00 0.01 0.00 23 1020.6
20260903202204 87 56 5.0 11.0 0.00 0.01 0.00 23 1020.6
20260903201711 85 77 7.0 15.0 0.00 0.01 0.00 23 1020.6
20260903201706 85 323 6.0 14.0 0.00 0.01 0.00 24 1020.6
20260903200701 86 132 6.0 15.0 0.00 0.01 0.00 23 1020.6
20260903200201 86 67 5.0 13.0 0.00 0.01 0.00 23 1020.6
20260903195658 85 71 6.0 13.0 0.00 0.01 0.00 24 1020.6
20260903195431 85 118 6.0 11.0 0.00 0.01 0.00 24 1020.6
20260903194701 85 77 7.0 13.0 0.00 0.01 0.00 24 1020.6
20260903194157 85 45 8.0 14.0 0.00 0.01 0.00 24 1020.6
20260903193659 86 106 7.0 15.0 0.00 0.01 0.00 24 1020.6
20260903193159 85 79 6.0 15.0 0.00 0.01 0.00 25 1020.6
20260903192931 85 53 6.0 13.0 0.00 0.01 0.00 24 1020.6
20260903192157 85 32 6.0 12.0 0.00 0.01 0.00 24 1020.6
20260903191657 85 72 5.0 11.0 0.00 0.01 0.00 24 1020.6
20260903191159 85 85 4.0 12.0 0.00 0.01 0.00 24 1020.6
20260903190657 84 96 3.0 12.0 0.00 0.01 0.00 25 1020.6
20260903190429 84 58 2.0 10.0 0.00 0.01 0.00 25 1020.6
20260903185700 85 60 2.0 5.0 0.00 0.01 0.00 24 1020.6
20260903185157 85 101 3.0 7.0 0.00 0.01 0.00 26 1020.6
20260903184657 84 84 3.0 9.0 0.00 0.01 0.00 26 1020.6
20260903184157 84 101 4.0 9.0 0.00 0.01 0.00 26 1020.6
20260903183700 83 101 5.0 11.0 0.00 0.01 0.00 26 1020.6
20260903183159 82 84 5.0 12.0 0.00 0.01 0.00 26 1020.6
20260903182658 82 124 4.0 12.0 0.00 0.01 0.00 25 1020.6
20260903182159 82 94 3.0 12.0 0.00 0.01 0.00 27 1020.6
20260903181659 82 85 4.0 12.0 0.00 0.01 0.00 27 1020.6
20260903181157 83 88 6.0 15.0 0.00 0.01 0.00 26 1020.6
20260903180928 83 98 5.0 15.0 0.00 0.01 0.00 26 1020.6
20260903180204 82 106 3.0 10.0 0.00 0.01 0.00 28 1020.6
20260903180159 83 103 2.0 9.0 0.00 0.01 0.00 28 1020.6
20260903175157 82 112 5.0 11.0 0.00 0.01 0.00 28 1020.6
20260903174700 82 65 5.0 11.0 0.00 0.01 0.00 27 1020.6